www.pogodaiklimat.ru

Погода и климат >> Архив погоды >> Испания >> Мурсия


ПОГОДА в Мурсие

  • Прогноз погоды в Мурсие
  • Монитор погоды в Мурсие

АРХИВ ПОГОДЫ в Мурсие

Время (UTC), дата Ветер
(напр.,м/с)
 
Видим.   Явления Облачность Т
(С)
Тd
(С)
f
(%)
Тe
(С)
Тes
(С)
Комфортность P
(гПа)
Po
(гПа)
Тmin
(С)
Tmax
(С)
R
(мм)
R24
(мм)
S
(см)
01 13.09 З 5 2900 м сильн. дождь н/о +18.6 +17.9 96 +19 +19 1023.3 1016.0 23
02 13.09 З 5 9000 м слаб. морось с дождем н/о +18.5 +17.8 96 +19 +19 1022.4 1015.1 15
03 13.09 З 6 14 км слаб. морось {дождь} н/о +18.6 +17.3 92 +19 +19 1020.8 1013.5 39
04 13.09 ЮЗ 3 2500 м сильн. дождь н/о +18.4 +17.4 94 +19 +19 1020.6 1013.3 4
05 13.09 З 6 1400 м сильн. дождь н/о +17.7 +17.1 96 +17 +17 1020.3 1013.0 20
06 13.09 Ю 2 18 км в посл. час переохл. осадки (гололёд) {гроза} н/о +17.8 +17.3 97 +18 +18 1020.7 1013.4 +17.4 41
07 13.09 ЮЗ 3 18 км слаб. морось н/о +18.0 +17.4 96 +18 +18 1020.6 1013.3 0.0
08 13.09 ЮЗ 2 19 км в посл. час дождь н/о +18.6 +17.8 95 +20 +20 1021.6 1014.3 2
09 13.09 З 2 11 км слаб. морось {дождь} 10/8 100 м
[Cu Sc Ac As]
+18.8 +18.1 96 +21 +21 комфорт 1022.0 1014.7 5
10 13.09 З 2 20 км в посл. час дождь н/о +19.9 +18.6 92 +24 +24 комфорт 1022.7 1015.4 0.0
11 13.09 З 2 20 км н/о +21.6 +19.0 85 +26 +26 душно 1022.7 1015.4
12 13.09 З 2 20 км {дождь} 5/3 600 м
[Cu Sc Ac trans Ci sp]
+23.1 +19.9 82 +30 +39 очень
душно
1021.9 1014.7 0.0
13 13.09 В 2 19 км н/о +24.7 +20.4 77 +31 +31 очень
душно
1021.6 1014.4
14 13.09 СВ 6 17 км слаб. морось н/о +24.7 +21.4 82 +31 +31 очень
душно
1020.7 1013.5 0.0
15 13.09 В 4 10 км дождь 10/8 600 м
[Cu Sc Ac As]
+24.1 +21.2 84 +30 +31 очень
душно
1020.7 1013.5 0.0
16 13.09 В 5 12 км в посл. час дождь н/о +23.3 +21.4 89 +31 +31 очень
душно
1020.4 1013.2 0.4
17 13.09 СВ 7 15 км в посл. час дождь н/о +23.3 +20.1 82 +30 +30 очень
душно
1021.1 1013.9 0.0
18 13.09 В 7 15 км {дождь} 5/4 300 м
[Frnb Ac trans Ci fib]
+22.2 +18.6 80 +27 +27 душно 1021.9 1014.7 +25.6 0.4
19 13.09 В 4 16 км н/о +21.3 +17.5 79 +25 +25 комфорт 1022.4 1015.1
20 13.09 С 2 18 км н/о +20.7 +17.3 81 +25 +25 комфорт 1022.9 1015.6
21 13.09 СЗ 2 18 км н/о +20.6 +17.8 84 +25 +25 комфорт 1022.9 1015.6
22 13.09 СЗ 4 19 км н/о +20.7 +18.1 85 +25 +25 комфорт 1022.3 1015.0
23 13.09 З 7 20 км н/о +21.4 +17.2 77 +25 +25 комфорт 1023.5 1016.2
00 14.09 СЗ 6 20 км н/о +20.6 +17.0 80 +24 +24 комфорт 1023.0 1015.7
01 14.09 ЮВ 2 20 км н/о +20.1 +17.3 84 +24 +24 комфорт 1022.6 1015.3
02 14.09 З 4 19 км н/о +20.6 +17.2 81 +24 +24 комфорт 1023.0 1015.7
03 14.09 С 3 15 км слаб. дождь н/о +19.2 +17.5 90 +21 +21 комфорт 1021.7 1014.4 4
04 14.09 З 4 17 км в посл. час дождь н/о +19.2 +17.3 89 +21 +21 комфорт 1021.0 1013.7 0.0
05 14.09 В 1 19 км н/о +18.7 +17.2 91 +21 +21 комфорт 1021.0 1013.7
06 14.09 З 2 20 км {дождь} 3/1 600 м
[Sc Ac trans Ci fib]
+18.5 +17.0 91 +20 +20 1020.6 1013.3 +18.4 0.0
07 14.09 В 2 14 км н/о +18.9 +17.7 93 +21 +21 комфорт 1021.0 1013.7
08 14.09 ЮЗ 2 20 км н/о +20.6 +17.8 84 +25 +25 комфорт 1021.0 1013.7
09 14.09 СЗ 1 20 км 10/0 1500 м
[Ac und]
+21.8 +17.4 76 +26 +29 душно 1021.4 1014.1
10 14.09 З 2 20 км н/о +22.3 +17.2 73 +27 +27 душно 1021.4 1014.2
11 14.09 З 3 20 км слаб. морось н/о +22.2 +18.0 77 +27 +27 душно 1022.2 1015.0 0.0
12 14.09 СЗ 2 20 км {морось} 10/1 600 м
[Frnb Ac und]
+23.0 +18.1 74 +29 +33 очень
душно
1021.0 1013.8 0.0
13 14.09 З 2 20 км н/о +23.2 +18.3 74 +29 +29 душно 1020.2 1013.0
14 14.09 З 2 20 км н/о +23.6 +18.5 73 +28 +28 душно 1019.5 1012.3
15 14.09 Ю 1 20 км 10/1 600 м
[Frnb Ac und]
+24.5 +18.7 70 +29 +32 душно 1019.1 1011.9
16 14.09 Ю 1 20 км н/о +24.4 +19.7 75 +30 +30 очень
душно
1018.5 1011.3
17 14.09 З 1 17 км н/о +24.3 +19.4 74 +29 +29 душно 1018.0 1010.8
18 14.09 ЮЗ 1 19 км 10/1 600 м
[Frnb Ac und]
+24.0 +20.1 79 +30 +30 очень
душно
1018.3 1011.1 +24.7
19 14.09 Ю 2 16 км н/о +23.5 +20.2 82 +29 +29 душно 1019.1 1011.9
20 14.09 З 2 15 км н/о +23.3 +20.2 83 +31 +31 очень
душно
1019.7 1012.5
21 14.09 З 1 19 км н/о +23.1 +20.1 83 +30 +30 очень
душно
1019.9 1012.7
22 14.09 СЗ 2 19 км н/о +22.5 +19.9 85 +29 +29 очень
душно
1019.5 1012.3
23 14.09 ЮВ 2 18 км н/о +21.9 +19.6 87 +27 +27 душно 1019.9 1012.7
00 15.09 З 1 13 км н/о +21.2 +19.7 91 +26 +26 душно 1019.2 1012.0
01 15.09 З 2 16 км н/о +21.0 +19.5 91 +27 +27 душно 1018.8 1011.6
02 15.09 Ю 2 15 км н/о +20.6 +18.9 90 +25 +25 комфорт 1018.3 1011.0
03 15.09 Ю 2 13 км н/о +20.3 +19.0 92 +25 +25 комфорт 1018.0 1010.7
04 15.09 З 1 11 км н/о +20.1 +19.1 94 +25 +25 комфорт 1017.7 1010.4
05 15.09 З 1 12 км н/о +20.0 +19.0 94 +25 +25 комфорт 1017.6 1010.3
06 15.09 З 2 11 км 5/5 600 м
[Sc]
+20.0 +19.0 94 +24 +24 комфорт 1017.4 1010.1 +19.9
07 15.09 Ю 1 11 км н/о +20.5 +19.5 94 +26 +26 душно 1017.7 1010.5
08 15.09 ЮЗ 1 15 км н/о +22.4 +19.9 86 +29 +29 очень
душно
1018.3 1011.1
09 15.09 З 2 20 км 8/8 1000 м
[Sc]
+24.5 +20.0 76 +30 +31 очень
душно
1018.7 1011.5
10 15.09 З 2 19 км н/о +25.6 +20.6 74 +32 +32 очень
душно
1018.7 1011.6
11 15.09 ЮЗ 1 17 км н/о +27.7 +20.0 63 +34 +34 очень
душно
1018.5 1011.4
12 15.09 С 2 20 км 6/6 600 м
[Sc]
+28.6 +19.8 59 +35 +41 очень
душно
1017.9 1010.8
13 15.09 Ю 2 18 км н/о +29.8 +20.6 58 +37 +37 очень
душно
1017.1 1010.1
14 15.09 В 4 15 км н/о +29.5 +21.7 63 +38 +38 очень
душно
1016.7 1009.7
15 15.09 В 5 15 км 3/3 600 м
[Cu med, cong]
+28.8 +21.3 64 +36 +39 очень
душно
1016.5 1009.5
16 15.09 СВ 5 15 км н/о +28.3 +20.8 64 +35 +35 очень
душно
1016.4 1009.4
17 15.09 В 4 15 км н/о +27.2 +21.0 69 +34 +34 очень
душно
1016.5 1009.4
18 15.09 В 3 14 км 4/0 1500 м
[Ac und Ci sp]
+25.9 +20.9 74 +32 +32 очень
душно
1016.9 1009.8 +30.2
19 15.09 В 2 12 км н/о +25.0 +20.9 78 +31 +31 очень
душно
1017.2 1010.1
20 15.09 С 2 10 км н/о +24.1 +21.0 83 +30 +30 очень
душно
1018.5 1011.3
21 15.09 В 2 7000 м н/о +23.8 +21.7 88 +30 +30 очень
душно
1018.5 1011.3
22 15.09 З 1 6000 м н/о +23.4 +21.7 90 +32 +32 очень
душно
1018.3 1011.1
23 15.09 СЗ 1 н/о н/о +22.7 +21.3 92 +30 +30 очень
душно
1018.4 1011.2
00 16.09 ЮЗ 1 6000 м н/о +22.5 +21.1 92 +30 +30 очень
душно
1018.4 1011.2
01 16.09 ЮЗ 1 8000 м н/о +22.2 +20.8 92 +29 +29 очень
душно
1018.0 1010.8
02 16.09 З 2 8000 м н/о +22.0 +20.5 91 +28 +28 душно 1017.5 1010.3
03 16.09 З 2 10 км н/о +21.5 +20.0 91 +27 +27 душно 1017.2 1010.0
04 16.09 ЮЗ 2 7000 м н/о +21.0 +19.8 93 +27 +27 душно 1017.2 1010.0
05 16.09 З 2 11 км н/о +20.9 +19.6 92 +26 +26 душно 1017.3 1010.1
06 16.09 З 2 12 км н/о +21.3 +19.2 88 +26 +26 душно 1017.8 1010.6 +20.8
07 16.09 ЮЗ 1 11 км н/о +21.7 +19.8 89 +27 +27 душно 1018.2 1011.0
08 16.09 З 2 15 км н/о +23.5 +20.2 82 +29 +29 душно 1018.8 1011.6
09 16.09 ЮЗ 2 10 км ясно +25.4 +20.4 74 +31 +39 очень
душно
1018.8 1011.7
10 16.09 ЮЗ 2 14 км н/о +27.1 +20.4 67 +34 +34 очень
душно
1018.8 1011.7
11 16.09 Ю 2 14 км н/о +28.5 +20.5 62 +35 +35 очень
душно
1018.4 1011.3
12 16.09 ЮВ 2 10 км 4/4 1000 м
[Cu hum]
+29.7 +19.1 53 +35 +44 очень
душно
1017.9 1010.9
13 16.09 ЮВ 2 14 км н/о +30.5 +21.0 57 +38 +38 очень
душно
1017.3 1010.3
14 16.09 ЮВ 2 15 км н/о +29.8 +19.8 55 +36 +36 очень
душно
1016.7 1009.7
15 16.09 ЮВ 3 13 км н/о +29.4 +20.8 60 +37 +37 очень
душно
1016.4 1009.4
16 16.09 Ю 3 14 км н/о +29.5 +20.6 59 +37 +37 очень
душно
1016.2 1009.2
17 16.09 Ю 3 13 км н/о +28.8 +20.5 61 +36 +36 очень
душно
1016.2 1009.2
18 16.09 Ю 1 10 км 3/0
[Ci fib]
+27.8 +20.9 66 +35 +35 очень
душно
1016.5 1009.4 +30.5
19 16.09 Ю 1 12 км н/о +26.3 +20.2 69 +32 +32 очень
душно
1016.8 1009.7
20 16.09 З 1 10 км н/о +25.2 +20.7 76 +31 +31 очень
душно
1017.6 1010.5
21 16.09 СВ 2 8000 м н/о +23.9 +21.4 86 +30 +30 очень
душно
1017.8 1010.6
22 16.09 СВ 2 7000 м н/о +23.3 +21.6 90 +31 +31 очень
душно
1017.9 1010.7
23 16.09 СВ 1 н/о н/о +22.8 +21.4 92 +30 +30 очень
душно
1017.9 1010.7
00 17.09 штиль 0 н/о н/о +22.6 +21.4 93 +30 +30 очень
душно
1017.9 1010.7
01 17.09 З 1 3900 м н/о +22.3 +21.3 94 +29 +29 очень
душно
1017.4 1010.2
02 17.09 З 2 4300 м н/о +22.4 +21.4 94 +29 +29 очень
душно
1017.4 1010.2
03 17.09 ЮЗ 1 1000 м н/о +22.2 +21.0 93 +29 +29 очень
душно
1017.1 1009.9
04 17.09 З 2 1900 м н/о +21.7 +20.7 94 +28 +28 душно 1017.1 1009.9
05 17.09 З 2 1000 м н/о +21.7 +21.0 96 +28 +28 душно 1017.2 1010.0
06 17.09 Ю 1 1100 м н/о +21.5 +20.5 94 +27 +27 душно 1017.3 1010.1 +21.4
07 17.09 В 1 3600 м н/о +21.4 +20.4 94 +27 +27 душно 1016.7 1009.5
08 17.09 ЮЗ 2 4300 м н/о +23.0 +21.3 90 +31 +31 очень
душно
1017.0 1009.8
09 17.09 СЗ 2 5000 м дымка 3/0
[Ci fib]
+24.4 +21.5 84 +31 +37 очень
душно
1017.8 1010.7
10 17.09 Ю 1 7000 м н/о +26.1 +21.3 75 +33 +33 очень
душно
1017.5 1010.4
11 17.09 ЮЗ 3 10 км н/о +26.0 +21.0 74 +33 +33 очень
душно
1017.9 1010.8
12 17.09 СЗ 2 8000 м слаб. дождь 10/8 600 м
[Frnb Ac As]
+25.6 +21.1 76 +32 +33 очень
душно
1016.0 1008.9 0.0
13 17.09 Ю 1 9000 м в посл. час дождь н/о +26.4 +21.4 74 +34 +34 очень
душно
1015.4 1008.3 0.0
14 17.09 Ю 2 13 км н/о +28.2 +20.7 64 +35 +35 очень
душно
1014.8 1007.8
15 17.09 ЮВ 1 13 км н/о +28.7 +21.0 63 +36 +36 очень
душно
1014.5 1007.5 0.0
16 17.09 В 3 13 км н/о +28.2 +20.7 64 +35 +35 очень
душно
1014.1 1007.1
17 17.09 СВ 4 12 км н/о +27.0 +21.1 70 +34 +34 очень
душно
1014.3 1007.2
18 17.09 В 2 8000 м мгла 6/1 1000 м
[Sc Ac lent Ci fib]
+25.5 +21.0 76 +32 +32 очень
душно
1014.4 1007.3 +29.3
19 17.09 СВ 2 9000 м н/о +24.3 +21.0 82 +31 +31 очень
душно
1014.9 1007.8
20 17.09 СВ 2 8000 м н/о +23.5 +21.0 86 +30 +30 очень
душно
1015.4 1008.2
21 17.09 С 2 7000 м н/о +23.2 +21.1 88 +31 +31 очень
душно
1015.6 1008.4
22 17.09 СЗ 1 6000 м н/о +22.7 +21.0 90 +30 +30 очень
душно
1015.5 1008.3
23 17.09 Ю 1 н/о н/о +22.5 +20.8 90 +29 +29 очень
душно
1015.2 1008.0
00 18.09 ЮЗ 2 4100 м н/о +22.1 +20.9 93 +29 +29 очень
душно
1015.1 1007.9
01 18.09 ЮЗ 1 2800 м н/о +21.7 +20.7 94 +28 +28 душно 1014.8 1007.6
02 18.09 СЗ 1 2900 м н/о +21.2 +20.4 95 +26 +26 душно 1014.3 1007.1
03 18.09 З 1 3300 м н/о +20.9 +20.1 95 +27 +27 душно 1014.2 1007.0
04 18.09 З 2 5000 м н/о +20.8 +19.8 94 +26 +26 душно 1014.0 1006.8
05 18.09 ЮЗ 1 4100 м н/о +20.3 +19.5 95 +25 +25 комфорт 1014.2 1007.0
06 18.09 З 2 10 км ясно +19.8 +18.8 94 +24 +24 комфорт 1014.5 1007.3 +19.8
07 18.09 ЮЗ 1 8000 м н/о +21.1 +19.4 90 +26 +26 душно 1015.0 1007.8
08 18.09 СЗ 2 13 км н/о +23.2 +19.4 79 +30 +30 очень
душно
1015.4 1008.2
09 18.09 З 2 10 км ясно +25.0 +19.1 70 +30 +37 душно 1015.6 1008.5
12 18.09 ЮВ 2 10 км 1/1 600 м
[Cu hum]
+30.2 +18.0 48 +35 +47 очень
душно
1014.8 1007.8
13 18.09 В 2 18 км н/о +30.6 +18.3 48 +35 +35 очень
душно
1014.4 1007.4
14 18.09 В 2 20 км н/о +31.2 +17.1 43 +35 +35 очень
душно
1013.9 1006.9
15 18.09 В 3 10 км 8/1 1000 м
[Cu hum Ci fib]
+31.1 +18.5 47 +36 +40 очень
душно
1013.5 1006.5
16 18.09 В 4 18 км н/о +30.0 +19.7 54 +36 +36 очень
душно
1013.4 1006.4
17 18.09 В 4 19 км н/о +28.7 +17.6 51 +33 +33 очень
душно
1013.5 1006.5
18 18.09 СВ 4 15 км 9/1 1000 м
[Sc Ac trans Ci fib]
+26.7 +19.3 64 +32 +32 очень
душно
1014.2 1007.1 +31.4
19 18.09 СВ 3 15 км н/о +24.9 +19.3 71 +30 +30 душно 1015.0 1007.9
20 18.09 С 2 12 км н/о +23.7 +20.0 80 +29 +29 душно 1015.8 1008.6
21 18.09 СВ 2 8000 м н/о +22.8 +20.3 86 +30 +30 очень
душно
1016.0 1008.8
22 18.09 З 1 8000 м н/о +22.7 +20.4 87 +29 +29 очень
душно
1016.2 1009.0
23 18.09 СЗ 2 6000 м н/о +21.9 +20.0 89 +28 +28 душно 1016.3 1009.1
00 19.09 З 1 6000 м н/о +21.7 +20.0 90 +27 +27 душно 1016.3 1009.1
01 19.09 З 1 н/о н/о +21.1 +19.6 91 +26 +26 душно 1016.2 1009.0
02 19.09 З 1 н/о н/о +20.7 +19.4 92 +26 +26 душно 1016.0 1008.8
03 19.09 З 1 н/о н/о +20.5 +19.2 92 +26 +26 душно 1015.8 1008.6
04 19.09 СЗ 2 7000 м н/о +19.9 +18.4 91 +23 +23 комфорт 1015.8 1008.5
05 19.09 З 2 10 км н/о +19.9 +17.9 88 +24 +24 комфорт 1015.7 1008.4
06 19.09 З 2 6000 м дымка {туман} 3/3 50 м
[St]
+19.3 +18.0 92 +22 +22 комфорт 1016.1 1008.8 +19.3
07 19.09 СЗ 1 8000 м н/о +20.2 +18.3 89 +25 +25 комфорт 1016.6 1009.3
08 19.09 Ю 1 9000 м н/о +22.9 +19.7 82 +29 +29 очень
душно
1016.9 1009.7
09 19.09 З 1 15 км ясно +24.9 +17.9 65 +29 +37 душно 1017.0 1009.9
10 19.09 В 2 18 км н/о +27.0 +17.8 57 +31 +31 душно 1017.1 1010.0
11 19.09 В 2 16 км н/о +27.9 +18.3 56 +33 +33 очень
душно
1016.9 1009.8
12 19.09 В 4 15 км 3/3 300 м
[Cu hum]
+28.7 +19.6 58 +35 +42 очень
душно
1016.2 1009.2
13 19.09 В 5 19 км н/о +29.0 +18.5 53 +34 +34 очень
душно
1015.8 1008.8
14 19.09 В 4 19 км н/о +29.3 +18.7 53 +34 +34 очень
душно
1015.3 1008.3
15 19.09 В 3 20 км 3/3 600 м
[Cu hum]
+28.9 +17.7 51 +33 +37 очень
душно
1015.2 1008.2
16 19.09 В 4 20 км н/о +28.5 +17.4 51 +33 +33 очень
душно
1014.9 1007.9
17 19.09 В 4 20 км н/о +27.5 +17.9 56 +32 +32 очень
душно
1015.3 1008.2
18 19.09 СВ 4 15 км 4/1 1200 м
[Cu hum Ac lent Ci]
+25.5 +19.2 68 +31 +31 очень
душно
1015.8 1008.7 +29.4
19 19.09 В 3 14 км н/о +24.3 +20.0 77 +30 +30 очень
душно
1016.2 1009.1
20 19.09 В 2 9000 м н/о +23.4 +20.7 85 +31 +31 очень
душно
1017.2 1010.0
21 19.09 СВ 2 6000 м н/о +22.7 +20.8 89 +30 +30 очень
душно
1017.5 1010.3
22 19.09 СВ 1 н/о н/о +22.1 +20.6 91 +28 +28 душно 1017.5 1010.3
23 19.09 С 1 н/о н/о +22.5 +21.0 91 +29 +29 очень
душно
1017.2 1010.0
00 20.09 штиль 0 6000 м н/о +22.6 +20.9 90 +30 +30 очень
душно
1017.3 1010.1

 

Местоположение метеостанции Мурсия (Испания): широта 38.00 долгота -1.17 высота над уровнем моря 62 м.

В архиве по умолчанию представлена погода в Мурсие за последнюю неделю. Архивные данные за месяц целиком и за предыдущие месяцы, начиная с января 2011 года, Вы можете получить, выбрав интересующий диапазон дат из раскрывающегося списка и нажав кнопку "Ввод!".


*Определитесь, кто Вы:
робот инопланетянин человек

Внимание! Время в таблицах - всемирное. Для получения местного времени необходимо прибавить поправку, которая равна 1 ч.

Смотрите также архив погоды в соседних городах и на ближайших метеорологических станциях:

Погода в Мурсия аэропорту (Испания) (8 км)
Погода в Сьеса - Парк де Бомберос (Испания) (31 км)
Погода в Сан-Хавьере (Испания) (41 км)
Погода в Пиносо (Испания) (46 км)
Погода в Картахене (Испания) (47 км)
Погода в Лорке (Испания) (60 км)
Погода в Аликанте аэропорту (Испания) (63 км)
Погода в Каравака - Фуэнтес Дель (Испания) (63 км)
Погода в Екле (Испания) (67 км)
Погода в Аликанте (Испания) (72 км)

Пояснения к столбцам:

Ветер - указаны скорость ветра в м/с - средняя за 10 мин, порывы в срок и между сроками (в фигурных скобках) и направление, откуда дует ветер: С - северный, СВ - северо-восточный, В - восточный, ЮВ - юго-восточный, Ю - южный, ЮЗ - юго-западный, З - западный, СЗ - северо-западный.
Видимость - горизонтальная дальность видимости в метрах или километрах. При видимости от 1 до 10 км при отсутствии осадков обычно наблюдается дымка, при ухудшении видимости до 1 км и менее - туман. В сухую погоду видимость может ухудшаться дымом, пылью или мглою.
Явления - указаны атмосферные явления, наблюдавшиеся в срок или в последний час перед сроком; фигурными скобками обозначены явления, наблюдавшиеся между сроками (за 1-3 часа до срока); квадратными скобками обозначены град или гололедные отложения с указанием их диаметра в мм.
Облачность - указаны через наклонную черту общая и нижняя облачность в баллах и высота нижней границы облаков в метрах; квадратными скобками обозначены формы облаков: Ci - перистые, Cs - перисто-слоистые, Cc - перисто-кучевые, Ac - высококучевые, As - высокослоистые, Sc - слоисто-кучевые, Ns - слоисто-дождевые, Cu - кучевые, Cb - кучево-дождевые. Подробнее классификацию облаков см. в Атласе облаков (PDF).
T - Температура воздуха - температура, измеренная на высоте 2 м над землей.
Td - Температура точки росы - температура, при понижении до которой содержащийся в воздухе водяной пар достигнет насыщения.
f - Относительная влажность воздуха - влажноcть воздуха, измеренная на высоте 2 м над землей.
Te - Эффективная температура - температура, которую ощущает одетый по сезону человек в тени. Характеристика душности погоды. При расчете учитывается влияние влажности воздуха и скорости ветра на теплоощущения человека.
Tes - Эффективная температура на солнце - температура, которую ощущает человек, с поправкой на солнечный нагрев. Характеристика знойности погоды. Зависит от высоты солнца над горизонтом, облачности и скорости ветра. Ночью, в пасмурную погоду, а также при ветре 12 м/с и более поправка равна нулю.
P - Атмосферное давление - приведенное к уровню моря атмосферное давление.
Po - Атмосферное давление - измеренное на уровне метеостанции атмосферное давление.
Tmin - Минимальная температура - минимум температуры воздуха на высоте 2 м над землей.
Tmax - Максимальная температура - максимум температуры воздуха на высоте 2 м над землей.
R - Количество осадков - Количество выпавших осадков за период времени, мм. При наведении курсора мыши на число - период времени, за который выпало указанное количество осадков.
R24 - Количество осадков - Количество выпавших осадков за 24 часа, мм.
S - Снежный покров - Высота снежного покрова, см. При наведении курсора мыши на число - состояние снежного покрова и степень покрытия местности в баллах.